www.pogodaiklimat.ru

Погода и климат >> Архив погоды >> Норвегия >> Хемседал II


ПОГОДА в Хемседале II

  • Прогноз погоды в Хемседале II
  • Монитор погоды в Хемседале II

АРХИВ ПОГОДЫ в Хемседале II

Время (UTC), дата Ветер
(напр.,м/с)
 
Видим.   Явления Облачность Т
(С)
Тd
(С)
f
(%)
Тe
(С)
Тes
(С)
Комфортность P
(гПа)
Po
(гПа)
Тmin
(С)
Tmax
(С)
R
(мм)
R24
(мм)
S
(см)
22 8.06 н/о н/о +8.3 +7.6 95 1009.5 938.8
23 8.06 н/о н/о +8.4 +7.8 96 1009.2 938.6
00 9.06 н/о н/о +8.9 +8.1 95 1008.9 938.4
01 9.06 н/о н/о +8.7 +8.0 95 1008.7 938.2
02 9.06 н/о н/о +8.5 +7.8 95 1008.6 938.0
03 9.06 н/о н/о +8.5 +7.6 94 1008.4 937.8
04 9.06 н/о н/о +8.6 +7.7 94 1008.1 937.6
05 9.06 н/о н/о +9.0 +7.8 92 1008.2 937.7
06 9.06 н/о н/о +9.2 +8.3 94 1008.0 937.7 +8.2 +11.2
07 9.06 н/о н/о +9.9 +8.7 92 1008.0 937.8
08 9.06 н/о н/о +10.6 +9.2 91 1008.3 938.2
09 9.06 н/о н/о +11.2 +8.1 81 1008.2 938.3
10 9.06 н/о н/о +11.5 +9.1 85 1008.3 938.5
11 9.06 н/о н/о +11.8 +7.9 77 1008.6 938.8
12 9.06 н/о н/о +14.6 +7.9 64 1007.9 938.8
13 9.06 н/о н/о +15.1 +6.7 57 1007.9 938.9
14 9.06 н/о н/о +14.5 +5.6 55 1008.5 939.4
15 9.06 н/о н/о +13.7 +6.3 61 1008.6 939.3
16 9.06 н/о н/о +13.9 +5.5 57 1009.5 940.1
17 9.06 н/о н/о +14.6 +6.5 58 1009.7 940.5
18 9.06 н/о н/о +12.5 +4.5 58 1010.9 941.1 +9.2 +17.4
19 9.06 н/о н/о +11.7 +4.0 59 1011.4 941.4
20 9.06 н/о н/о +10.7 +4.6 66 1012.3 942.0
21 9.06 н/о н/о +9.5 +5.3 75 1013.0 942.4
22 9.06 н/о н/о +10.1 +3.4 63 1013.4 942.9
23 9.06 н/о н/о +9.4 +3.8 68 1013.6 942.9
00 10.06 н/о н/о +9.3 +3.5 67 1014.2 943.4
01 10.06 н/о н/о +8.5 +4.0 73 1014.5 943.5
02 10.06 н/о н/о +8.0 +3.5 73 1014.9 943.8
03 10.06 н/о н/о +7.6 +4.0 78 1015.5 944.2
04 10.06 н/о н/о +7.4 +2.5 71 1016.0 944.6
05 10.06 н/о н/о +7.7 +4.3 79 1016.3 944.9
06 10.06 н/о н/о +12.1 +3.4 55 1015.3 945.1 +6.1 +12.5
07 10.06 н/о н/о +11.5 +2.8 55 1016.1 945.7
08 10.06 н/о н/о +12.5 +2.4 50 1015.9 945.8
09 10.06 н/о н/о +12.9 +2.8 50 1016.2 946.1
10 10.06 н/о н/о +15.6 +2.8 42 1015.9 946.5
11 10.06 н/о н/о +15.7 +1.5 38 1015.9 946.5
12 10.06 н/о н/о +15.5 +0.5 36 1015.7 946.3
13 10.06 н/о н/о +16.2 +1.9 38 1016.0 946.7
14 10.06 н/о н/о +16.4 +0.9 35 1015.9 946.7
15 10.06 н/о н/о +16.7 -1.4 29 1015.9 946.8
16 10.06 н/о н/о +16.0 +0.2 34 1016.4 947.0
17 10.06 н/о н/о +15.3 +1.1 38 1017.0 947.4
18 10.06 н/о н/о +14.5 +0.4 38 1017.3 947.5 +11.4 +17.0
19 10.06 н/о н/о +12.5 +0.3 43 1017.7 947.5
20 10.06 н/о н/о +9.0 +1.7 60 1019.3 948.1
21 10.06 н/о н/о +6.9 +2.6 74 1020.6 948.8
22 10.06 н/о н/о +6.1 +2.4 77 1021.4 949.3
23 10.06 н/о н/о +6.0 +2.3 77 1021.7 949.6
00 11.06 н/о н/о +5.9 +2.0 76 1021.8 949.7
01 11.06 н/о н/о +4.0 +1.7 85 1022.4 949.8
02 11.06 н/о н/о +3.3 +1.8 90 1022.7 949.8
03 11.06 н/о н/о +1.4 +0.3 92 1023.8 950.4
04 11.06 н/о н/о +1.4 +0.7 95 1024.6 951.1
05 11.06 н/о н/о +3.3 +2.7 96 1024.2 951.2
06 11.06 н/о н/о +9.8 +4.4 69 1022.4 951.1 +1.1 +14.5
07 11.06 н/о н/о +13.9 +4.0 51 1021.1 950.9
08 11.06 н/о н/о +12.8 +5.5 61 1021.7 951.2
09 11.06 н/о н/о +14.4 +6.0 57 1021.3 951.2
10 11.06 н/о н/о +14.9 +4.3 49 1021.2 951.2
11 11.06 н/о н/о +15.2 +2.7 43 1020.9 951.0
12 11.06 н/о н/о +16.4 +3.1 41 1020.5 950.9
13 11.06 н/о н/о +16.9 +2.9 39 1020.4 951.0
14 11.06 н/о н/о +18.2 +4.4 40 1019.7 950.6
15 11.06 н/о н/о +17.2 +2.0 36 1020.1 950.8
16 11.06 н/о н/о +16.4 +3.8 43 1020.7 951.1
17 11.06 н/о н/о +16.5 +4.2 44 1020.6 951.1
18 11.06 н/о н/о +15.9 +4.6 47 1021.0 951.3 +9.8 +18.9
19 11.06 н/о н/о +15.4 +4.8 49 1021.5 951.7
20 11.06 н/о н/о +14.9 +4.6 50 1021.8 951.8
21 11.06 н/о н/о +14.7 +4.1 49 1022.2 952.2
22 11.06 н/о н/о +14.5 +4.5 51 1022.1 952.0
23 11.06 н/о н/о +12.5 +6.8 68 1023.6 952.9
00 12.06 н/о н/о +9.6 +7.6 87 1025.3 953.8
01 12.06 н/о н/о +9.0 +7.5 90 1025.7 954.1
02 12.06 н/о н/о +8.7 +7.6 93 1025.4 953.7
03 12.06 н/о н/о +8.4 +6.9 90 1025.6 953.8
04 12.06 н/о н/о +7.8 +6.7 93 1026.0 954.0
05 12.06 н/о н/о +8.7 +6.0 83 1025.1 953.4
06 12.06 н/о н/о +8.4 +6.2 86 1025.0 953.3 +7.8 +16.0
07 12.06 н/о н/о +8.5 +6.5 87 1024.7 953.0
08 12.06 н/о н/о +9.0 +6.3 83 1024.4 952.8
09 12.06 н/о н/о +8.9 +5.7 80 1024.4 952.8
10 12.06 н/о н/о +8.7 +5.8 82 1023.8 952.2
11 12.06 н/о н/о +7.8 +4.0 77 1023.7 951.9
12 12.06 н/о н/о +7.9 +4.3 78 1023.5 951.7
13 12.06 н/о н/о +8.3 +3.8 73 1022.7 951.1
14 12.06 н/о н/о +8.4 +3.3 70 1022.4 950.8
15 12.06 н/о н/о +8.5 +3.2 69 1021.8 950.3
16 12.06 н/о н/о +7.2 +4.9 85 1021.8 950.0
17 12.06 н/о н/о +7.3 +5.3 87 1021.0 949.3
18 12.06 н/о н/о +7.7 +4.3 79 1020.1 948.5 +7.2 +9.2
19 12.06 н/о н/о +7.1 +4.4 83 1019.8 948.1
20 12.06 н/о н/о +7.1 +4.4 83 1019.3 947.6
21 12.06 н/о н/о +6.9 +4.6 85 1019.0 947.3
22 12.06 н/о н/о +6.5 +4.5 87 1018.7 946.9
23 12.06 н/о н/о +6.8 +4.3 84 1017.3 945.7
00 13.06 н/о н/о +5.9 +4.7 92 1016.5 944.7
01 13.06 н/о н/о +6.0 +4.8 92 1015.4 943.7
02 13.06 н/о н/о +6.1 +4.6 90 1014.1 942.6
03 13.06 н/о н/о +5.8 +4.9 94 1012.8 941.3
04 13.06 н/о н/о +5.7 +5.0 95 1012.1 940.6
05 13.06 н/о н/о +5.7 +5.1 96 1010.8 939.4
06 13.06 н/о н/о +6.4 +5.5 94 1011.3 940.0 +5.7 +7.7
07 13.06 н/о н/о +6.9 +5.7 92 1011.0 939.8
08 13.06 н/о н/о +7.5 +6.6 94 1010.7 939.7
09 13.06 н/о н/о +8.0 +6.5 90 1010.4 939.6
10 13.06 н/о н/о +8.5 +7.0 90 1010.7 940.0
11 13.06 н/о н/о +8.8 +6.8 87 1010.8 940.1
12 13.06 н/о н/о +9.4 +7.5 88 1011.0 940.4
13 13.06 н/о н/о +9.8 +7.4 85 1011.3 940.8
14 13.06 н/о н/о +9.9 +7.8 87 1011.5 941.1
15 13.06 н/о н/о +9.3 +8.4 94 1012.0 941.4
16 13.06 н/о н/о +9.6 +8.7 94 1012.4 941.8
17 13.06 н/о н/о +10.2 +9.1 93 1012.5 942.0
18 13.06 н/о н/о +10.7 +9.3 91 1013.0 942.6 +6.4 +10.8
19 13.06 н/о н/о +10.7 +9.3 91 1013.6 943.2
20 13.06 н/о н/о +10.7 +8.8 88 1014.0 943.6
21 13.06 н/о н/о +10.1 +8.4 89 1015.2 944.5
22 13.06 н/о н/о +10.0 +8.3 89 1015.7 945.0
23 13.06 н/о н/о +9.6 +8.2 91 1016.4 945.5
00 14.06 н/о н/о +8.9 +8.0 94 1016.8 945.7
01 14.06 н/о н/о +8.6 +7.9 95 1016.6 945.5
02 14.06 н/о н/о +8.6 +7.9 95 1016.9 945.8
03 14.06 н/о н/о +8.6 +7.7 94 1017.8 946.6
04 14.06 н/о н/о +8.7 +7.8 94 1017.7 946.5
05 14.06 н/о н/о +9.7 +8.6 93 1017.4 946.5
06 14.06 н/о н/о +12.8 +9.3 79 1017.0 946.8 +8.5 +12.8
07 14.06 н/о н/о +12.4 +7.5 72 1017.3 947.0
08 14.06 н/о н/о +14.4 +7.2 62 1016.6 946.9
09 14.06 н/о н/о +14.8 +5.9 55 1016.8 947.1
10 14.06 н/о н/о +14.1 +6.2 59 1017.2 947.4
11 14.06 н/о н/о +14.3 +8.3 67 1017.4 947.6
12 14.06 н/о н/о +14.3 +6.4 59 1017.4 947.6
13 14.06 н/о н/о +15.4 +7.7 60 1017.1 947.5
14 14.06 н/о н/о +15.5 +7.8 60 1016.3 946.9
15 14.06 н/о н/о +14.9 +8.4 65 1016.5 946.9
16 14.06 н/о н/о +14.5 +7.8 64 1016.9 947.1
17 14.06 н/о н/о +14.8 +8.7 67 1016.5 946.9
18 14.06 н/о н/о +14.9 +8.6 66 1016.3 946.7 +11.8 +16.2
19 14.06 н/о н/о +13.5 +8.8 73 1017.0 947.0
20 14.06 н/о н/о +13.2 +9.1 76 1017.4 947.3
21 14.06 н/о н/о +12.5 +8.6 77 1018.1 947.8
22 14.06 н/о н/о +10.9 +8.5 85 1018.7 948.0
23 14.06 н/о н/о +8.9 +7.4 90 1019.3 948.1
00 15.06 н/о н/о +6.7 +5.8 94 1020.2 948.4
01 15.06 н/о н/о +5.2 +4.5 95 1020.6 948.4
02 15.06 н/о н/о +4.9 +4.3 96 1020.6 948.3
03 15.06 н/о н/о +4.6 +4.0 96 1021.0 948.6
04 15.06 н/о н/о +4.1 +3.5 96 1021.4 948.8
05 15.06 н/о н/о +5.4 +5.0 97 1021.2 948.9
06 15.06 н/о н/о +11.7 +8.6 81 1019.2 948.6 +3.7 +15.4
07 15.06 н/о н/о +15.2 +7.5 60 1018.1 948.4
08 15.06 н/о н/о +17.6 +7.4 51 1017.3 948.2
09 15.06 н/о н/о +19.3 +5.0 39 1016.5 947.8
10 15.06 н/о н/о +19.5 +5.2 39 1016.1 947.5
11 15.06 н/о н/о +19.7 +4.6 37 1015.6 947.1
12 15.06 н/о н/о +20.8 +4.0 33 1015.1 946.9
13 15.06 н/о н/о +21.4 +2.7 29 1014.2 946.2
14 15.06 н/о н/о +21.6 +4.7 33 1013.7 945.8
15 15.06 н/о н/о +21.6 +3.8 31 1013.2 945.3
16 15.06 н/о н/о +21.7 +4.3 32 1012.8 945.0
17 15.06 н/о н/о +21.4 +4.5 33 1012.4 944.5
18 15.06 н/о н/о +20.9 +4.5 34 1012.3 944.3 +11.7 +22.1
19 15.06 н/о н/о +18.7 +4.5 39 1012.8 944.3
20 15.06 н/о н/о +16.7 +5.4 47 1013.5 944.5
21 15.06 н/о н/о +11.5 +7.6 77 1015.2 944.9

 

Местоположение метеостанции Хемседал II (Норвегия): широта 60.86 долгота 8.59 высота над уровнем моря 604 м.

В архиве по умолчанию представлена погода в Хемседале II за последнюю неделю. Архивные данные за месяц целиком и за предыдущие месяцы, начиная с января 2011 года, Вы можете получить, выбрав интересующий диапазон дат из раскрывающегося списка и нажав кнопку "Ввод!".


*Определитесь, кто Вы:
робот инопланетянин человек

Внимание! Время в таблицах - всемирное. Для получения местного времени необходимо прибавить поправку, которая равна 1 ч.

Смотрите также архив погоды в соседних городах и на ближайших метеорологических станциях:

Погода в Хемседале (Норвегия) (4 км)
Погода в Фагернесе (Норвегия) (38 км)
Погода в Локен и Волбу (Норвегия) (38 км)
Погода в Фагернес аэропорту (Норвегия) (42 км)
Погода в Гейло (Норвегия) (42 км)
Погода в Несбен-Тодокке (Норвегия) (44 км)
Погода в Филефеле (Норвегия) (44 км)
Погода в Бейтостолене (Норвегия) (47 км)
Погода в Гейло аэропорту (Норвегия) (49 км)
Погода на Финсеватнете (Норвегия) (64 км)

Пояснения к столбцам:

Ветер - указаны скорость ветра в м/с - средняя за 10 мин, порывы в срок и между сроками (в фигурных скобках) и направление, откуда дует ветер: С - северный, СВ - северо-восточный, В - восточный, ЮВ - юго-восточный, Ю - южный, ЮЗ - юго-западный, З - западный, СЗ - северо-западный.
Видимость - горизонтальная дальность видимости в метрах или километрах. При видимости от 1 до 10 км при отсутствии осадков обычно наблюдается дымка, при ухудшении видимости до 1 км и менее - туман. В сухую погоду видимость может ухудшаться дымом, пылью или мглою.
Явления - указаны атмосферные явления, наблюдавшиеся в срок или в последний час перед сроком; фигурными скобками обозначены явления, наблюдавшиеся между сроками (за 1-3 часа до срока); квадратными скобками обозначены град или гололедные отложения с указанием их диаметра в мм.
Облачность - указаны через наклонную черту общая и нижняя облачность в баллах и высота нижней границы облаков в метрах; квадратными скобками обозначены формы облаков: Ci - перистые, Cs - перисто-слоистые, Cc - перисто-кучевые, Ac - высококучевые, As - высокослоистые, Sc - слоисто-кучевые, Ns - слоисто-дождевые, Cu - кучевые, Cb - кучево-дождевые. Подробнее классификацию облаков см. в Атласе облаков (PDF).
T - Температура воздуха - температура, измеренная на высоте 2 м над землей.
Td - Температура точки росы - температура, при понижении до которой содержащийся в воздухе водяной пар достигнет насыщения.
f - Относительная влажность воздуха - влажноcть воздуха, измеренная на высоте 2 м над землей.
Te - Эффективная температура - температура, которую ощущает одетый по сезону человек в тени. Характеристика душности погоды. При расчете учитывается влияние влажности воздуха и скорости ветра на теплоощущения человека.
Tes - Эффективная температура на солнце - температура, которую ощущает человек, с поправкой на солнечный нагрев. Характеристика знойности погоды. Зависит от высоты солнца над горизонтом, облачности и скорости ветра. Ночью, в пасмурную погоду, а также при ветре 12 м/с и более поправка равна нулю.
P - Атмосферное давление - приведенное к уровню моря атмосферное давление.
Po - Атмосферное давление - измеренное на уровне метеостанции атмосферное давление.
Tmin - Минимальная температура - минимум температуры воздуха на высоте 2 м над землей.
Tmax - Максимальная температура - максимум температуры воздуха на высоте 2 м над землей.
R - Количество осадков - Количество выпавших осадков за период времени, мм. При наведении курсора мыши на число - период времени, за который выпало указанное количество осадков.
R24 - Количество осадков - Количество выпавших осадков за 24 часа, мм.
S - Снежный покров - Высота снежного покрова, см. При наведении курсора мыши на число - состояние снежного покрова и степень покрытия местности в баллах.